Wind_Speed
59 54 51 48 47 46 45 43 39 30 20 22 25 26 27 34 49 66 80 90 100 109 118 126 131 133 132 128 125 120 116 111 105 100 95 89 81 71
57 52 49 47 45 45 44 42 40 34 23 19 23 25 25 29 41 58 72 83 93 102 110 119 127 131 132 130 126 122 118 113 108 102 97 92 86 76
56 51 47 45 44 43 43 41 40 36 28 20 21 23 23 27 36 50 64 76 85 93 102 111 120 127 131 131 128 124 120 116 110 105 100 95 89 80
54 49 45 43 42 42 41 40 39 36 31 23 19 20 21 23 31 44 57 68 77 85 93 102 112 121 127 130 129 126 122 118 113 108 102 97 92 84
54 48 44 41 40 40 40 39 37 35 32 26 19 19 18 20 26 38 51 62 70 77 84 93 103 113 122 128 129 127 124 119 115 110 106 101 95 89
53 48 43 40 39 39 38 38 36 33 31 27 21 18 17 17 23 34 46 56 63 70 76 84 94 104 114 123 127 127 125 122 118 113 108 103 98 92
53 48 43 40 38 38 38 37 36 33 30 27 22 17 15 15 21 31 42 52 58 64 70 77 85 96 107 117 125 127 126 123 119 115 110 106 101 96
53 48 43 39 37 37 37 36 35 33 30 27 23 18 13 13 19 29 39 48 54 59 64 69 77 86 97 108 118 124 126 124 121 117 112 108 103 98
53 48 42 39 36 35 35 35 34 32 30 26 22 17 12 11 18 27 37 45 51 55 59 62 70 77 88 100 111 120 125 124 122 119 114 110 106 101
52 48 42 38 36 33 32 33 33 31 29 25 21 16 11 10 16 26 35 43 49 52 54 56 63 70 81 92 104 115 122 124 122 120 116 112 108 104
51 49 43 38 35 32 31 31 31 30 29 25 21 15 10 9 16 25 34 41 46 49 51 52 56 63 74 85 96 107 117 122 122 120 117 114 109 105
49 48 44 39 35 32 30 30 30 29 27 24 20 14 8 8 15 24 33 39 44 46 48 49 52 58 66 78 89 100 110 119 121 120 118 115 111 107
48 47 44 38 34 31 30 29 29 28 26 23 19 13 7 7 14 22 31 37 41 44 46 47 49 53 61 71 84 94 104 113 119 119 117 115 112 107
48 46 44 39 33 31 29 28 28 27 25 23 18 13 6 5 13 21 30 36 39 42 43 44 46 50 57 67 78 89 98 107 115 117 116 115 112 108
47 45 44 41 34 30 29 27 26 26 25 22 17 12 6 2 11 19 27 34 37 39 41 42 44 48 55 64 73 84 93 101 110 115 115 113 111 108
46 45 44 42 37 32 29 27 25 24 23 20 17 12 7 2 9 17 24 31 35 37 39 40 43 47 53 62 71 80 89 96 104 110 112 111 109 106
44 44 43 41 38 33 28 26 24 23 22 19 16 12 7 4 8 15 21 27 32 35 38 40 42 46 52 61 69 77 84 91 98 105 108 107 106 104
43 43 41 40 36 33 28 24 22 21 20 18 15 12 8 5 9 15 19 23 27 31 35 39 42 45 51 60 67 73 81 86 92 99 102 102 101 100
42 42 41 39 36 33 29 24 21 19 18 16 14 11 8 7 11 15 19 21 24 28 32 35 38 43 51 58 64 71 76 81 87 92 97 96 96 96
40 40 40 38 35 32 29 24 20 17 16 14 12 10 7 8 11 15 19 21 25 29 31 33 37 43 50 56 62 69 74 78 83 87 91 90 89 89
38 38 38 37 35 32 29 25 20 16 13 12 11 9 7 7 10 13 17 20 24 29 32 34 36 42 49 56 62 67 72 76 79 83 85 86 86 86
36 36 36 36 35 32 29 25 20 15 11 9 8 7 6 6 9 14 18 22 25 29 31 33 35 40 47 54 62 67 70 72 76 78 80 82 83 82
34 34 35 35 34 32 29 25 20 15 11 7 6 6 6 7 10 14 18 21 24 28 31 35 37 42 47 54 62 69 73 71 72 75 78 79 79 77
Wind_Direction
339 339 340 341 342 341 340 339 337 336 318 291 282 275 260 237 224 216 211 209 210 210 209 208 207 206 205 205 206 206 206 205 205 204 203 203 204 207
340 340 340 341 342 342 341 340 338 337 332 300 285 277 265 242 227 219 213 210 209 210 210 209 208 206 205 205 205 205 205 205 204 204 203 203 204 205
341 340 340 341 342 342 342 341 339 337 336 318 294 282 269 248 229 220 214 210 209 210 210 210 209 207 206 205 204 205 205 204 204 204 203 203 203 205
342 341 341 342 342 343 343 342 340 338 337 330 305 288 275 253 232 220 214 210 209 209 210 211 210 208 206 205 204 204 204 204 203 203 203 203 203 204
344 342 342 343 343 343 344 343 341 339 337 334 318 297 280 256 231 218 213 209 208 208 209 210 211 210 207 206 204 203 203 203 203 203 202 203 203 204
345 344 343 343 344 344 344 344 342 340 338 334 325 304 284 257 229 215 209 207 207 207 208 210 211 210 209 206 204 203 203 203 203 202 202 202 203 204
347 345 344 344 344 345 345 345 344 343 340 337 329 312 288 255 225 211 206 204 204 205 207 209 210 211 209 207 205 203 203 203 202 202 202 202 203 204
349 347 345 345 345 345 346 346 346 344 342 338 332 318 292 254 220 207 202 201 201 203 205 207 209 210 210 208 206 204 203 202 202 202 202 202 203 204
350 348 346 345 345 346 346 347 345 343 342 338 333 321 296 250 215 203 199 198 199 201 202 205 208 209 210 209 207 205 203 202 202 201 201 202 202 203
351 350 347 346 346 346 347 348 348 345 343 340 335 323 297 245 213 201 196 195 197 198 199 202 206 208 209 209 208 206 203 202 202 201 201 202 202 203
351 351 349 348 347 347 348 350 350 348 346 343 337 327 296 240 210 199 195 194 195 196 197 200 205 207 209 208 208 207 204 202 202 202 201 201 202 204
351 352 351 350 349 349 350 352 352 351 349 347 342 332 300 233 206 197 193 193 194 194 195 198 203 205 207 206 207 206 205 202 201 202 202 202 202 204
353 353 353 351 349 350 352 354 354 353 353 352 349 341 313 230 204 195 192 191 193 194 195 198 202 203 204 204 205 205 204 203 201 201 202 202 203 204
353 354 355 354 351 352 354 355 357 356 356 356 356 352 336 227 200 194 191 189 191 194 195 198 200 201 201 202 203 203 203 202 201 201 202 203 203 204
353 354 356 357 356 355 356 357 358 359 359 0 2 2 2 194 190 190 189 188 190 193 195 197 199 199 199 199 200 201 201 201 201 201 201 202 203 204
353 355 356 358 359 358 358 358 360 1 2 5 8 11 22 123 180 186 187 187 189 191 195 196 196 196 195 196 197 198 199 200 200 201 201 202 203 204
354 355 357 359 360 359 358 359 1 3 6 9 12 18 29 98 158 176 180 183 186 189 192 193 192 192 192 192 193 194 196 197 199 200 201 202 203 204
355 356 358 359 0 0 360 360 3 5 8 12 16 22 37 91 144 160 168 175 181 185 188 189 189 189 188 188 189 190 192 194 197 199 200 202 202 204
355 357 359 360 0 1 2 2 4 7 11 16 22 30 50 102 137 152 159 165 172 176 178 181 184 185 184 183 184 187 188 191 194 197 198 200 202 203
355 357 359 0 1 2 3 4 5 8 13 20 28 39 62 113 137 150 158 165 169 169 172 174 177 179 179 179 181 182 184 187 191 194 197 199 200 202
355 357 359 1 2 2 3 4 6 9 14 23 34 48 70 115 141 154 162 165 168 168 168 169 172 174 176 177 178 179 181 184 187 190 194 196 198 200
355 356 358 0 2 3 3 5 6 9 14 25 40 57 77 112 141 153 160 163 164 164 165 166 169 173 176 177 175 174 175 179 183 187 192 195 197 199
354 356 358 0 2 3 4 5 6 8 13 25 48 73 95 120 146 158 162 162 163 164 166 167 168 170 173 176 175 174 173 175 179 185 190 193 195 197
Height
5371 5356 5342 5329 5317 5304 5293 5282 5274 5269 5264 5257 5252 5249 5248 5250 5255 5264 5278 5296 5314 5333 5354 5377 5404 5432 5461 5489 5516 5541 5566 5589 5612 5633 5653 5671 5687 5700
5366 5352 5339 5326 5314 5302 5291 5280 5271 5264 5259 5254 5248 5245 5243 5244 5248 5256 5268 5284 5301 5320 5341 5363 5388 5415 5443 5470 5498 5524 5550 5574 5598 5620 5640 5659 5676 5690
5362 5349 5336 5323 5312 5300 5289 5279 5269 5260 5255 5250 5244 5241 5238 5239 5242 5249 5260 5275 5291 5309 5328 5349 5372 5398 5425 5452 5480 5507 5533 5559 5583 5605 5626 5646 5664 5680
5359 5346 5333 5321 5310 5299 5288 5277 5268 5258 5251 5246 5241 5237 5235 5234 5237 5244 5254 5267 5283 5300 5318 5337 5358 5381 5407 5435 5463 5490 5517 5543 5568 5591 5614 5635 5653 5667
5355 5343 5330 5319 5308 5297 5286 5276 5266 5257 5249 5243 5238 5234 5231 5231 5233 5239 5249 5262 5276 5292 5308 5326 5345 5367 5391 5417 5445 5473 5502 5531 5557 5579 5598 5619 5638 5656
5353 5339 5327 5316 5306 5295 5285 5275 5265 5256 5248 5241 5236 5232 5229 5228 5229 5235 5244 5256 5271 5286 5301 5318 5335 5355 5378 5403 5433 5462 5489 5512 5537 5562 5585 5606 5626 5644
5349 5336 5324 5313 5303 5293 5283 5274 5264 5255 5247 5240 5234 5230 5227 5225 5227 5232 5241 5252 5266 5280 5295 5311 5328 5348 5368 5392 5417 5444 5472 5499 5524 5549 5572 5594 5614 5632
5347 5334 5322 5311 5301 5291 5281 5272 5263 5254 5246 5239 5233 5228 5225 5224 5225 5230 5238 5249 5263 5277 5291 5305 5321 5339 5359 5381 5406 5432 5458 5485 5510 5535 5559 5581 5601 5620
5345 5332 5320 5309 5300 5290 5281 5271 5262 5253 5246 5238 5232 5228 5224 5223 5225 5229 5236 5246 5259 5271 5286 5301 5316 5333 5350 5371 5393 5418 5444 5471 5496 5522 5546 5569 5589 5608
5343 5331 5319 5308 5298 5289 5280 5271 5262 5253 5245 5237 5231 5227 5224 5223 5224 5228 5235 5245 5256 5269 5283 5297 5311 5326 5342 5361 5382 5406 5432 5458 5484 5509 5533 5556 5577 5597
5341 5329 5318 5307 5297 5288 5279 5270 5261 5253 5244 5237 5231 5226 5223 5223 5224 5228 5235 5244 5255 5267 5280 5293 5306 5320 5335 5355 5375 5397 5421 5447 5472 5497 5521 5544 5566 5585
5341 5329 5316 5305 5295 5287 5278 5270 5262 5253 5245 5237 5231 5227 5224 5223 5225 5228 5234 5243 5253 5265 5278 5290 5301 5314 5330 5347 5366 5387 5411 5436 5462 5486 5510 5532 5553 5573
5341 5329 5316 5305 5295 5286 5277 5269 5261 5253 5246 5239 5232 5228 5225 5224 5225 5229 5235 5243 5253 5264 5275 5286 5297 5309 5324 5340 5357 5378 5401 5426 5451 5476 5499 5521 5542 5563
5340 5328 5317 5305 5295 5286 5277 5269 5262 5254 5247 5240 5234 5229 5226 5225 5227 5230 5236 5243 5252 5262 5273 5283 5294 5305 5318 5332 5350 5370 5393 5416 5441 5466 5490 5511 5532 5553
5339 5327 5316 5305 5295 5286 5278 5270 5263 5256 5249 5242 5236 5232 5229 5228 5229 5232 5237 5243 5252 5261 5271 5281 5290 5301 5313 5328 5344 5363 5384 5407 5431 5456 5479 5501 5523 5544
5338 5327 5316 5305 5294 5286 5278 5271 5264 5258 5251 5245 5239 5235 5232 5230 5231 5234 5239 5245 5252 5261 5269 5278 5287 5298 5310 5323 5338 5356 5377 5400 5423 5448 5472 5494 5516 5536
5339 5327 5316 5305 5296 5287 5280 5273 5266 5260 5254 5248 5243 5239 5236 5234 5234 5237 5241 5246 5253 5260 5268 5276 5285 5295 5306 5318 5334 5352 5373 5395 5419 5442 5465 5487 5508 5529
5339 5328 5317 5307 5298 5289 5282 5275 5269 5263 5257 5252 5247 5243 5240 5239 5239 5240 5244 5248 5254 5260 5267 5275 5283 5293 5304 5317 5332 5350 5370 5392 5414 5437 5460 5481 5502 5522
5338 5328 5318 5308 5299 5291 5283 5277 5271 5266 5261 5256 5252 5248 5245 5244 5244 5245 5248 5252 5257 5262 5268 5276 5284 5293 5304 5317 5332 5349 5368 5389 5411 5433 5455 5477 5499 5520
5338 5329 5319 5309 5301 5293 5285 5279 5273 5268 5264 5260 5256 5253 5251 5250 5250 5251 5253 5256 5260 5265 5271 5278 5286 5295 5306 5319 5333 5349 5367 5387 5408 5431 5453 5474 5495 5515
5338 5329 5320 5311 5302 5294 5287 5281 5275 5271 5267 5264 5261 5258 5257 5256 5256 5257 5258 5261 5264 5269 5275 5282 5289 5298 5308 5319 5333 5349 5367 5387 5409 5431 5451 5469 5487 5504
5338 5329 5321 5312 5304 5296 5289 5283 5278 5273 5270 5267 5265 5263 5262 5261 5261 5262 5263 5266 5270 5274 5279 5286 5293 5302 5311 5323 5336 5352 5369 5388 5408 5429 5449 5469 5485 5503
5338 5330 5322 5314 5306 5298 5291 5285 5280 5276 5273 5270 5269 5267 5266 5266 5267 5268 5269 5272 5275 5279 5284 5290 5298 5306 5315 5326 5339 5354 5371 5389 5407 5425 5445 5464 5485 5506